Regional Weather Roundup
Issued by NWS

Home | Current Version | Previous Version | Graphics & Text | Print | Product List | Glossary On
Versions: 1 2 3 4 5 6 7 8 9 10 11 12 13 14 15 16 17 18 19 20 21 22 23 24 25 26 27 28 29 30 31 32 33 34 35 36 37 38 39 40 41 42 43 44 45 46 47 48 49 50
975
ASUS43 KFSD 231502
RWRSD

WEATHER ROUNDUP FOR SOUTH DAKOTA
NATIONAL WEATHER SERVICE SIOUX FALLS SD
1000 AM CDT THU MAR 23 2017

NOTE: "FAIR" INDICATES FEW OR NO CLOUDS BELOW 12,000 FEET WITH NO
SIGNIFICANT WEATHER AND/OR OBSTRUCTIONS TO VISIBILITY.


SDZ001>005-009-010-012>017-231600-
NORTHWEST AND NORTH CENTRAL SOUTH DAKOTA

CITY           SKY/WX    TMP DP  RH WIND       PRES   REMARKS
BUFFALO          N/A     45  41  86 NE10      29.63F
FAITH            N/A     43  41  93 N16       29.64F
MOBRIDGE       CLOUDY    45  31  58 SE10      29.68F
$$

SDZ012>016-024>037-041>051-057-063-072>074-231600-
SOUTHWEST AND SOUTH CENTRAL SOUTH DAKOTA

CITY           SKY/WX    TMP DP  RH WIND       PRES   REMARKS
RAPID CTY ARPT SUNNY     50  40  68 N17G26    29.64F
PIERRE         CLOUDY    46  33  60 SE15      29.68F
CUSTER         CLOUDY    51  37  58 N7        29.69R
ELLSWORTH AFB  SUNNY     47  42  80 N16       29.65F
PHILIP         PTSUNNY   49  39  68 CALM      29.66F
PINE RIDGE     SUNNY     48  39  71 SW9       29.65F
SPEARFISH      FAIR      46  41  81 NW7       29.69S
WINNER         PTSUNNY   49  39  68 S24G31    29.70F
$$

SDZ004>011-016>023-039-040-231600-
NORTHEAST SOUTH DAKOTA

CITY           SKY/WX    TMP DP  RH WIND       PRES   REMARKS
ABERDEEN       CLOUDY    40  28  62 S20       29.79F
WATERTOWN      CLOUDY    38  26  62 S14       29.84F
BROOKINGS      PTSUNNY   39  25  57 S17G28    29.87F
SISSETON         N/A     40  29  64 S16       29.87S
$$

SDZ017-020-022-023-036>040-048>070-231600-
SOUTHEAST SOUTH DAKOTA

CITY           SKY/WX    TMP DP  RH WIND       PRES   REMARKS
SIOUX FALLS    CLOUDY    42  26  53 SE20G26   29.90F
HURON          CLOUDY    42  29  59 SE20G30   29.80F
CHAMBERLAIN    CLOUDY    47  34  62 SE15G23   29.73F
MITCHELL       CLOUDY    43  29  57 SE17G28   29.81F
YANKTON        CLOUDY    39  32  75 E12       29.86F THUNDER
$$

ABBREVIATIONS USED IN REMARKS
   TC - TEMPERATURE IN CELSIUS
  WCI - WIND CHILL INDEX
   HX - HEAT INDEX
  VSB - VISIBILITY





USA.gov is the U.S. government's official web portal to all federal, state and local government web resources and services.